Year,Month,Day,Hour,Minute,Value (Times are PST for temperature in C)
2015,09,22,00,01,10.60
2015,09,22,00,02,10.40
2015,09,22,00,03,10.40
2015,09,22,00,04,10.40
2015,09,22,00,06,10.40
2015,09,22,00,07,10.40
2015,09,22,00,09,10.40
2015,09,22,00,11,10.60
2015,09,22,00,12,10.60
2015,09,22,00,13,10.60
2015,09,22,00,14,10.60
2015,09,22,00,16,10.60
2015,09,22,00,17,10.60
2015,09,22,00,18,10.60
2015,09,22,00,19,10.60
2015,09,22,00,21,10.60
2015,09,22,00,22,10.60
2015,09,22,00,23,10.60
2015,09,22,00,24,10.60
2015,09,22,00,26,10.60
2015,09,22,00,27,10.60
2015,09,22,00,28,10.60
2015,09,22,00,29,10.60
2015,09,22,00,31,10.60
2015,09,22,00,32,10.60
2015,09,22,00,33,10.60
2015,09,22,00,34,10.60
2015,09,22,00,36,10.60
2015,09,22,00,37,10.60
2015,09,22,00,38,10.60
2015,09,22,00,39,10.60
2015,09,22,00,41,10.40
2015,09,22,00,42,10.40
2015,09,22,00,43,10.40
2015,09,22,00,44,10.40
2015,09,22,00,45,10.40
2015,09,22,00,46,10.40
2015,09,22,00,47,10.30
2015,09,22,00,48,10.30
2015,09,22,00,49,10.30
2015,09,22,00,50,10.30
2015,09,22,00,51,10.30
2015,09,22,00,52,10.30
2015,09,22,00,53,10.20
2015,09,22,00,54,10.20
2015,09,22,00,55,10.20
2015,09,22,00,56,10.20
2015,09,22,00,57,10.20
2015,09,22,00,58,10.20
2015,09,22,00,59,10.20
2015,09,22,01,00,10.10
2015,09,22,01,01,10.10
2015,09,22,01,02,10.10
2015,09,22,01,03,10.10
2015,09,22,01,04,10.10
2015,09,22,01,05,10.10
2015,09,22,01,06,10.10
2015,09,22,01,07,10.10
2015,09,22,01,08,10.10
2015,09,22,01,09,10.10
2015,09,22,01,10,10.10
2015,09,22,01,11,10.10
2015,09,22,01,12,10.10
2015,09,22,01,13,10.10
2015,09,22,01,14,10.10
2015,09,22,01,15,10.10
2015,09,22,01,16,10.10
2015,09,22,01,17,10.10
2015,09,22,01,18,10.10
2015,09,22,01,19,10.10
2015,09,22,01,20,10.10
2015,09,22,01,21,10.10
2015,09,22,01,22,10.10
2015,09,22,01,23,10.10
2015,09,22,01,24,10.10
2015,09,22,01,25,10.20
2015,09,22,01,26,10.20
2015,09,22,01,27,10.20
2015,09,22,01,28,10.20
2015,09,22,01,29,10.20
2015,09,22,01,30,10.30
2015,09,22,01,31,10.30
2015,09,22,01,33,10.30
2015,09,22,01,34,10.30
2015,09,22,01,36,10.30
2015,09,22,01,37,10.30
2015,09,22,01,38,10.30
2015,09,22,01,39,10.30
2015,09,22,01,41,10.30
2015,09,22,01,42,10.30
2015,09,22,01,43,10.30
2015,09,22,01,44,10.30
2015,09,22,01,46,10.30
2015,09,22,01,47,10.30
2015,09,22,01,48,10.30
2015,09,22,01,49,10.30
2015,09,22,01,51,10.30
2015,09,22,01,52,10.30
2015,09,22,01,53,10.30
2015,09,22,01,54,10.30
2015,09,22,01,56,10.30
2015,09,22,01,57,10.30
2015,09,22,01,58,10.30
2015,09,22,01,59,10.30
2015,09,22,02,01,10.30
2015,09,22,02,02,10.30
2015,09,22,02,03,10.30
2015,09,22,02,04,10.20
2015,09,22,02,06,10.20
2015,09,22,02,07,10.20
2015,09,22,02,08,10.20
2015,09,22,02,09,10.20
2015,09,22,02,11,10.20
2015,09,22,02,12,10.20
2015,09,22,02,13,10.20
2015,09,22,02,14,10.20
2015,09,22,02,16,10.10
2015,09,22,02,17,10.10
2015,09,22,02,18,10.10
2015,09,22,02,19,10.10
2015,09,22,02,21,10.10
2015,09,22,02,22,10.10
2015,09,22,02,23,10.10
2015,09,22,02,24,10.10
2015,09,22,02,26,10.10
2015,09,22,02,27,10.10
2015,09,22,02,28,10.10
2015,09,22,02,29,10.10
2015,09,22,02,31,10.10
2015,09,22,02,32,9.90
2015,09,22,02,33,9.90
2015,09,22,02,34,9.90
2015,09,22,02,36,9.90
2015,09,22,02,37,9.90
2015,09,22,02,38,9.90
2015,09,22,02,39,9.90
2015,09,22,02,41,9.90
2015,09,22,02,42,9.90
2015,09,22,02,43,9.90
2015,09,22,02,44,9.90
2015,09,22,02,46,9.90
2015,09,22,02,47,9.90
2015,09,22,02,48,9.90
2015,09,22,02,49,9.90
2015,09,22,02,51,9.90
2015,09,22,02,52,9.90
2015,09,22,02,53,9.90
2015,09,22,02,54,9.90
2015,09,22,02,56,9.90
2015,09,22,02,57,9.80
2015,09,22,02,58,9.80
2015,09,22,02,59,9.80
2015,09,22,03,01,9.80
2015,09,22,03,02,9.80
2015,09,22,03,03,9.80
2015,09,22,03,04,9.80
2015,09,22,03,06,9.80
2015,09,22,03,07,9.80
2015,09,22,03,08,9.80
2015,09,22,03,09,9.80
2015,09,22,03,11,9.80
2015,09,22,03,12,9.70
2015,09,22,03,13,9.70
2015,09,22,03,14,9.70
2015,09,22,03,16,9.70
2015,09,22,03,17,9.70
2015,09,22,03,18,9.70
2015,09,22,03,19,9.70
2015,09,22,03,21,9.70
2015,09,22,03,22,9.70
2015,09,22,03,23,9.70
2015,09,22,03,24,9.70
2015,09,22,03,26,9.70
2015,09,22,03,27,9.70
2015,09,22,03,28,9.70
2015,09,22,03,29,9.70
2015,09,22,03,31,9.70
2015,09,22,03,32,9.70
2015,09,22,03,33,9.70
2015,09,22,03,34,9.70
2015,09,22,03,35,9.70
2015,09,22,03,36,9.70
2015,09,22,03,37,9.70
2015,09,22,03,38,9.70
2015,09,22,03,39,9.70
2015,09,22,03,40,9.70
2015,09,22,03,41,9.70
2015,09,22,03,42,9.70
2015,09,22,03,43,9.70
2015,09,22,03,44,9.70
2015,09,22,03,45,9.70
2015,09,22,03,46,9.70
2015,09,22,03,47,9.70
2015,09,22,03,48,9.70
2015,09,22,03,49,9.70
2015,09,22,03,50,9.70
2015,09,22,03,51,9.70
2015,09,22,03,52,9.70
2015,09,22,03,53,9.60
2015,09,22,03,54,9.60
2015,09,22,03,55,9.60
2015,09,22,03,56,9.60
2015,09,22,03,57,9.60
2015,09,22,03,58,9.50
2015,09,22,03,59,9.50
2015,09,22,04,00,9.50
2015,09,22,04,01,9.50
2015,09,22,04,02,9.40
2015,09,22,04,03,9.40
2015,09,22,04,04,9.30
2015,09,22,04,05,9.30
2015,09,22,04,06,9.30
2015,09,22,04,07,9.20
2015,09,22,04,08,9.20
2015,09,22,04,09,9.20
2015,09,22,04,10,9.20
2015,09,22,04,11,9.20
2015,09,22,04,12,9.20
2015,09,22,04,13,9.20
2015,09,22,04,14,9.20
2015,09,22,04,15,9.20
2015,09,22,04,16,9.20
2015,09,22,04,17,9.20
2015,09,22,04,19,9.20
2015,09,22,04,21,9.20
2015,09,22,04,22,9.20
2015,09,22,04,23,9.20
2015,09,22,04,24,9.30
2015,09,22,04,26,9.30
2015,09,22,04,27,9.30
2015,09,22,04,28,9.30
2015,09,22,04,29,9.40
2015,09,22,04,31,9.40
2015,09,22,04,32,9.50
2015,09,22,04,33,9.50
2015,09,22,04,34,9.50
2015,09,22,04,36,9.60
2015,09,22,04,37,9.60
2015,09,22,04,38,9.60
2015,09,22,04,39,9.60
2015,09,22,04,41,9.60
2015,09,22,04,42,9.60
2015,09,22,04,43,9.60
2015,09,22,04,44,9.60
2015,09,22,04,46,9.60
2015,09,22,04,47,9.60
2015,09,22,04,48,9.60
2015,09,22,04,49,9.60
2015,09,22,04,51,9.50
2015,09,22,04,52,9.40
2015,09,22,04,53,9.40
2015,09,22,04,54,9.40
2015,09,22,04,56,9.30
2015,09,22,04,57,9.30
2015,09,22,04,58,9.20
2015,09,22,04,59,9.20
2015,09,22,05,01,9.20
2015,09,22,05,02,9.20
2015,09,22,05,03,9.20
2015,09,22,05,04,9.20
2015,09,22,05,06,9.20
2015,09,22,05,07,9.20
2015,09,22,05,08,9.20
2015,09,22,05,09,9.20
2015,09,22,05,11,9.20
2015,09,22,05,12,9.20
2015,09,22,05,13,9.20
2015,09,22,05,14,9.20
2015,09,22,05,16,9.20
2015,09,22,05,17,9.30
2015,09,22,05,18,9.30
2015,09,22,05,19,9.30
2015,09,22,05,21,9.30
2015,09,22,05,22,9.30
2015,09,22,05,23,9.30
2015,09,22,05,24,9.30
2015,09,22,05,26,9.30
2015,09,22,05,27,9.20
2015,09,22,05,28,9.20
2015,09,22,05,29,9.20
2015,09,22,05,31,9.20
2015,09,22,05,32,9.20
2015,09,22,05,33,9.10
2015,09,22,05,34,9.10
2015,09,22,05,36,9.00
2015,09,22,05,37,9.00
2015,09,22,05,38,9.00
2015,09,22,05,39,9.00
2015,09,22,05,41,8.90
2015,09,22,05,42,8.90
2015,09,22,05,43,8.90
2015,09,22,05,44,8.90
2015,09,22,05,46,8.90
2015,09,22,05,47,8.90
2015,09,22,05,48,8.90
2015,09,22,05,49,8.90
2015,09,22,05,51,8.90
2015,09,22,05,52,8.90
2015,09,22,05,53,8.90
2015,09,22,05,54,8.90
2015,09,22,05,56,9.00
2015,09,22,05,57,9.00
2015,09,22,05,58,9.00
2015,09,22,05,59,9.00
2015,09,22,06,01,9.00
2015,09,22,06,02,9.00
2015,09,22,06,03,9.00
2015,09,22,06,04,9.10
2015,09,22,06,06,9.10
2015,09,22,06,07,9.10
2015,09,22,06,08,9.10
2015,09,22,06,09,9.10
2015,09,22,06,11,9.10
2015,09,22,06,12,9.10
2015,09,22,06,13,9.10
2015,09,22,06,14,9.10
2015,09,22,06,15,9.10
2015,09,22,06,16,9.10
2015,09,22,06,17,9.10
2015,09,22,06,18,9.00
2015,09,22,06,19,9.00
2015,09,22,06,20,8.90
2015,09,22,06,21,8.90
2015,09,22,06,22,8.80
2015,09,22,06,23,8.80
2015,09,22,06,24,8.70
2015,09,22,06,25,8.70
2015,09,22,06,26,8.70
2015,09,22,06,27,8.70
2015,09,22,06,28,8.70
2015,09,22,06,29,8.70
2015,09,22,06,30,8.70
2015,09,22,06,31,8.70
2015,09,22,06,32,8.70
2015,09,22,06,33,8.70
2015,09,22,06,34,8.70
2015,09,22,06,35,8.70
2015,09,22,06,36,8.70
2015,09,22,06,37,8.70
2015,09,22,06,38,8.70
2015,09,22,06,39,8.70
2015,09,22,06,40,8.70
2015,09,22,06,41,8.70
2015,09,22,06,42,8.70
2015,09,22,06,43,8.70
2015,09,22,06,44,8.60
2015,09,22,06,45,8.60
2015,09,22,06,46,8.60
2015,09,22,06,47,8.60
2015,09,22,06,48,8.60
2015,09,22,06,49,8.60
2015,09,22,06,50,8.60
2015,09,22,06,51,8.60
2015,09,22,06,52,8.60
2015,09,22,06,53,8.60
2015,09,22,06,54,8.60
2015,09,22,06,55,8.60
2015,09,22,06,56,8.70
2015,09,22,06,57,8.70
2015,09,22,06,58,8.70
2015,09,22,06,59,8.70
2015,09,22,07,00,8.70
2015,09,22,07,02,8.70
2015,09,22,07,03,8.80
2015,09,22,07,04,8.80
2015,09,22,07,06,8.80
2015,09,22,07,07,8.90
2015,09,22,07,08,8.90
2015,09,22,07,09,8.90
2015,09,22,07,11,8.90
2015,09,22,07,12,8.90
2015,09,22,07,13,9.00
2015,09,22,07,14,9.00
2015,09,22,07,16,9.00
2015,09,22,07,17,9.00
2015,09,22,07,18,9.10
2015,09,22,07,19,9.10
2015,09,22,07,21,9.20
2015,09,22,07,22,9.20
2015,09,22,07,23,9.20
2015,09,22,07,24,9.20
2015,09,22,07,26,9.40
2015,09,22,07,27,9.50
2015,09,22,07,28,9.60
2015,09,22,07,29,9.70
2015,09,22,07,31,9.80
2015,09,22,07,32,9.90
2015,09,22,07,33,9.90
2015,09,22,07,34,10.10
2015,09,22,07,36,10.10
2015,09,22,07,37,10.20
2015,09,22,07,38,10.20
2015,09,22,07,39,10.30
2015,09,22,07,41,10.40
2015,09,22,07,42,10.40
2015,09,22,07,43,10.40
2015,09,22,07,44,10.40
2015,09,22,07,46,10.60
2015,09,22,07,47,10.60
2015,09,22,07,48,10.60
2015,09,22,07,49,10.60
2015,09,22,07,51,10.70
2015,09,22,07,52,10.70
2015,09,22,07,53,10.80
2015,09,22,07,54,10.80
2015,09,22,07,56,10.90
2015,09,22,07,57,10.90
2015,09,22,07,58,10.90
2015,09,22,07,59,10.90
2015,09,22,08,01,10.90
2015,09,22,08,02,10.90
2015,09,22,08,03,11.10
2015,09,22,08,04,11.10
2015,09,22,08,06,11.10
2015,09,22,08,07,11.10
2015,09,22,08,08,11.10
2015,09,22,08,09,11.10
2015,09,22,08,11,11.20
2015,09,22,08,12,11.20
2015,09,22,08,13,11.20
2015,09,22,08,14,11.20
2015,09,22,08,16,11.30
2015,09,22,08,17,11.30
2015,09,22,08,18,11.30
2015,09,22,08,19,11.20
2015,09,22,08,21,11.20
2015,09,22,08,22,11.20
2015,09,22,08,23,11.20
2015,09,22,08,24,11.20
2015,09,22,08,26,11.20
2015,09,22,08,27,11.20
2015,09,22,08,28,11.20
2015,09,22,08,29,11.20
2015,09,22,08,31,11.20
2015,09,22,08,32,11.20
2015,09,22,08,33,11.20
2015,09,22,08,34,11.20
2015,09,22,08,36,11.20
2015,09,22,08,37,11.20
2015,09,22,08,38,11.20
2015,09,22,08,39,11.10
2015,09,22,08,41,11.10
2015,09,22,08,42,11.10
2015,09,22,08,43,11.10
2015,09,22,08,44,11.10
2015,09,22,08,46,11.10
2015,09,22,08,47,11.10
2015,09,22,08,48,11.10
2015,09,22,08,49,11.10
2015,09,22,08,51,11.10
2015,09,22,08,52,11.10
2015,09,22,08,53,11.10
2015,09,22,08,54,11.10
2015,09,22,08,56,11.10
2015,09,22,08,57,11.10
2015,09,22,08,58,11.10
2015,09,22,08,59,11.10
2015,09,22,09,01,11.10
2015,09,22,09,02,11.10
2015,09,22,09,03,11.10
2015,09,22,09,04,11.20
2015,09,22,09,06,11.20
2015,09,22,09,07,11.20
2015,09,22,09,08,11.20
2015,09,22,09,09,11.20
2015,09,22,09,10,11.30
2015,09,22,09,11,11.30
2015,09,22,09,12,11.30
2015,09,22,09,13,11.30
2015,09,22,09,14,11.30
2015,09,22,09,15,11.40
2015,09,22,09,16,11.40
2015,09,22,09,17,11.40
2015,09,22,09,18,11.40
2015,09,22,09,19,11.40
2015,09,22,09,20,11.40
2015,09,22,09,21,11.40
2015,09,22,09,22,11.40
2015,09,22,09,23,11.40
2015,09,22,09,24,11.60
2015,09,22,09,25,11.60
2015,09,22,09,26,11.60
2015,09,22,09,27,11.60
2015,09,22,09,28,11.60
2015,09,22,09,29,11.70
2015,09,22,09,30,11.70
2015,09,22,09,31,11.80
2015,09,22,09,32,11.80
2015,09,22,09,33,11.80
2015,09,22,09,34,11.80
2015,09,22,09,35,11.90
2015,09,22,09,36,12.00
2015,09,22,09,37,12.00
2015,09,22,09,38,12.10
2015,09,22,09,39,12.20
2015,09,22,09,40,12.30
2015,09,22,09,41,12.30
2015,09,22,09,42,12.30
2015,09,22,09,43,12.40
2015,09,22,09,44,12.50
2015,09,22,09,45,12.50
2015,09,22,09,46,12.60
2015,09,22,09,47,12.70
2015,09,22,09,49,12.80
2015,09,22,09,51,12.90
2015,09,22,09,52,13.00
2015,09,22,09,53,13.00
2015,09,22,09,54,13.10
2015,09,22,09,56,13.20
2015,09,22,09,57,13.30
2015,09,22,09,58,13.30
2015,09,22,09,59,13.30
2015,09,22,10,01,13.40
2015,09,22,10,02,13.50
2015,09,22,10,03,13.50
2015,09,22,10,04,13.60
2015,09,22,10,06,13.60
2015,09,22,10,07,13.70
2015,09,22,10,08,13.70
2015,09,22,10,09,13.70
2015,09,22,10,11,13.70
2015,09,22,10,12,13.70
2015,09,22,10,13,13.70
2015,09,22,10,14,13.80
2015,09,22,10,16,13.90
2015,09,22,10,17,13.90
2015,09,22,10,18,14.00
2015,09,22,10,19,14.00
2015,09,22,10,21,14.10
2015,09,22,10,22,14.20
2015,09,22,10,23,14.20
2015,09,22,10,24,14.20
2015,09,22,10,26,14.20
2015,09,22,10,27,14.30
2015,09,22,10,28,14.30
2015,09,22,10,29,14.30
2015,09,22,10,31,14.30
2015,09,22,10,32,14.30
2015,09,22,10,33,14.30
2015,09,22,10,34,14.30
2015,09,22,10,36,14.30
2015,09,22,10,37,14.40
2015,09,22,10,38,14.40
2015,09,22,10,39,14.40
2015,09,22,10,41,14.50
2015,09,22,10,42,14.60
2015,09,22,10,43,14.60
2015,09,22,10,44,14.60
2015,09,22,10,46,14.60
2015,09,22,10,47,14.70
2015,09,22,10,48,14.70
2015,09,22,10,49,14.70
2015,09,22,10,51,14.80
2015,09,22,10,52,14.80
2015,09,22,10,53,14.90
2015,09,22,10,54,14.90
2015,09,22,10,56,15.00
2015,09,22,10,57,15.00
2015,09,22,10,58,15.10
2015,09,22,10,59,15.10
2015,09,22,11,01,15.30
2015,09,22,11,02,15.30
2015,09,22,11,03,15.40
2015,09,22,11,04,15.40
2015,09,22,11,06,15.50
2015,09,22,11,07,15.40
2015,09,22,11,08,15.40
2015,09,22,11,09,15.30
2015,09,22,11,11,15.20
2015,09,22,11,12,15.10
2015,09,22,11,13,15.00
2015,09,22,11,14,14.90
2015,09,22,11,16,14.70
2015,09,22,11,17,14.50
2015,09,22,11,18,14.40
2015,09,22,11,19,14.30
2015,09,22,11,21,14.20
2015,09,22,11,22,14.20
2015,09,22,11,23,14.10
2015,09,22,11,24,14.00
2015,09,22,11,26,13.90
2015,09,22,11,27,13.80
2015,09,22,11,28,13.80
2015,09,22,11,29,13.70
2015,09,22,11,31,13.70
2015,09,22,11,32,13.60
2015,09,22,11,33,13.60
2015,09,22,11,34,13.50
2015,09,22,11,35,13.50
2015,09,22,11,36,13.40
2015,09,22,11,37,13.40
2015,09,22,11,38,13.40
2015,09,22,11,39,13.30
2015,09,22,11,40,13.30
2015,09,22,11,41,13.30
2015,09,22,11,42,13.30
2015,09,22,11,43,13.30
2015,09,22,11,44,13.30
2015,09,22,11,45,13.30
2015,09,22,11,46,13.30
2015,09,22,11,47,13.30
2015,09,22,11,48,13.30
2015,09,22,11,49,13.20
2015,09,22,11,50,13.20
2015,09,22,11,51,13.20
2015,09,22,11,52,13.20
2015,09,22,11,53,13.20
2015,09,22,11,54,13.20
2015,09,22,11,55,13.20
2015,09,22,11,56,13.20
2015,09,22,11,57,13.20
2015,09,22,11,58,13.20
2015,09,22,11,59,13.20
2015,09,22,12,00,13.20
2015,09,22,12,01,13.10
2015,09,22,12,02,13.10
2015,09,22,12,04,13.20
2015,09,22,12,06,13.20
2015,09,22,12,07,13.20
2015,09,22,12,08,13.30
2015,09,22,12,09,13.20
2015,09,22,12,11,13.20
2015,09,22,12,12,13.30
2015,09,22,12,13,13.30
2015,09,22,12,14,13.30
2015,09,22,12,16,13.30
2015,09,22,12,17,13.30
2015,09,22,12,18,13.30
2015,09,22,12,19,13.30
2015,09,22,12,21,13.30
2015,09,22,12,22,13.30
2015,09,22,12,23,13.40
2015,09,22,12,24,13.40
2015,09,22,12,26,13.40
2015,09,22,12,27,13.50
2015,09,22,12,28,13.50
2015,09,22,12,29,13.50
2015,09,22,12,31,13.60
2015,09,22,12,32,13.60
2015,09,22,12,33,13.60
2015,09,22,12,34,13.60
2015,09,22,12,36,13.60
2015,09,22,12,37,13.60
2015,09,22,12,38,13.70
2015,09,22,12,39,13.70
2015,09,22,12,41,13.70
2015,09,22,12,42,13.70
2015,09,22,12,43,13.70
2015,09,22,12,44,13.70
2015,09,22,12,46,13.70
2015,09,22,12,47,13.70
2015,09,22,12,48,13.70
2015,09,22,12,49,13.70
2015,09,22,12,51,13.70
2015,09,22,12,52,13.70
2015,09,22,12,53,13.80
2015,09,22,12,54,13.80
2015,09,22,12,56,13.90
2015,09,22,12,57,13.90
2015,09,22,12,58,13.90
2015,09,22,12,59,13.90
2015,09,22,13,01,14.00
2015,09,22,13,02,14.00
2015,09,22,13,03,14.10
2015,09,22,13,04,14.10
2015,09,22,13,06,14.20
2015,09,22,13,07,14.20
2015,09,22,13,08,14.20
2015,09,22,13,09,14.20
2015,09,22,13,11,14.20
2015,09,22,13,12,14.30
2015,09,22,13,13,14.30
2015,09,22,13,14,14.30
2015,09,22,13,16,14.30
2015,09,22,13,17,14.30
2015,09,22,13,18,14.30
2015,09,22,13,19,14.30
2015,09,22,13,21,14.30
2015,09,22,13,22,14.30
2015,09,22,13,23,14.30
2015,09,22,13,24,14.30
2015,09,22,13,25,14.30
2015,09,22,13,26,14.30
2015,09,22,13,27,14.30
2015,09,22,13,28,14.30
2015,09,22,13,29,14.30
2015,09,22,13,30,14.40
2015,09,22,13,31,14.40
2015,09,22,13,32,14.40
2015,09,22,13,33,14.30
2015,09,22,13,34,14.30
2015,09,22,13,35,14.30
2015,09,22,13,36,14.30
2015,09,22,13,37,14.40
2015,09,22,13,38,14.40
2015,09,22,13,39,14.40
2015,09,22,13,40,14.40
2015,09,22,13,41,14.40
2015,09,22,13,42,14.40
2015,09,22,13,43,14.50
2015,09,22,13,44,14.50
2015,09,22,13,45,14.50
2015,09,22,13,46,14.50
2015,09,22,13,47,14.50
2015,09,22,13,48,14.50
2015,09,22,13,49,14.50
2015,09,22,13,50,14.50
2015,09,22,13,51,14.50
2015,09,22,13,52,14.50
2015,09,22,13,53,14.60
2015,09,22,13,54,14.60
2015,09,22,13,56,14.60
2015,09,22,13,57,14.60
2015,09,22,13,58,14.60
2015,09,22,13,59,14.60
2015,09,22,14,01,14.50
2015,09,22,14,02,14.60
2015,09,22,14,03,14.60
2015,09,22,14,04,14.60
2015,09,22,14,06,14.70
2015,09,22,14,07,14.80
2015,09,22,14,08,14.80
2015,09,22,14,09,14.80
2015,09,22,14,11,15.00
2015,09,22,14,12,15.10
2015,09,22,14,13,15.10
2015,09,22,14,14,15.20
2015,09,22,14,16,15.30
2015,09,22,14,17,15.30
2015,09,22,14,18,15.30
2015,09,22,14,19,15.30
2015,09,22,14,21,15.30
2015,09,22,14,22,15.30
2015,09,22,14,23,15.30
2015,09,22,14,24,15.30
2015,09,22,14,26,15.20
2015,09,22,14,27,15.20
2015,09,22,14,28,15.10
2015,09,22,14,29,15.10
2015,09,22,14,31,15.10
2015,09,22,14,32,15.10
2015,09,22,14,33,15.10
2015,09,22,14,34,15.20
2015,09,22,14,36,15.20
2015,09,22,14,37,15.10
2015,09,22,14,38,15.10
2015,09,22,14,39,15.10
2015,09,22,14,41,15.10
2015,09,22,14,42,15.10
2015,09,22,14,43,15.10
2015,09,22,14,44,15.10
2015,09,22,14,46,15.10
2015,09,22,14,47,15.10
2015,09,22,14,48,15.10
2015,09,22,14,49,15.10
2015,09,22,14,51,15.00
2015,09,22,14,52,15.00
2015,09,22,14,53,15.00
2015,09,22,14,54,15.00
2015,09,22,14,56,14.90
2015,09,22,14,57,14.90
2015,09,22,14,58,14.90
2015,09,22,14,59,14.90
2015,09,22,15,01,14.80
2015,09,22,15,02,14.80
2015,09,22,15,03,14.80
2015,09,22,15,04,14.80
2015,09,22,15,06,14.80
2015,09,22,15,07,14.80
2015,09,22,15,08,14.80
2015,09,22,15,09,14.80
2015,09,22,15,11,14.90
2015,09,22,15,12,14.90
2015,09,22,15,13,14.90
2015,09,22,15,14,15.00
2015,09,22,15,16,15.00
2015,09,22,15,17,15.00
2015,09,22,15,18,14.90
2015,09,22,15,19,14.90
2015,09,22,15,21,14.80
2015,09,22,15,22,14.80
2015,09,22,15,23,14.70
2015,09,22,15,24,14.70
2015,09,22,15,25,14.60
2015,09,22,15,26,14.60
2015,09,22,15,27,14.60
2015,09,22,15,28,14.60
2015,09,22,15,29,14.60
2015,09,22,15,30,14.60
2015,09,22,15,31,14.70
2015,09,22,15,32,14.60
2015,09,22,15,33,14.70
2015,09,22,15,34,14.70
2015,09,22,15,35,14.70
2015,09,22,15,36,14.70
2015,09,22,15,37,14.70
2015,09,22,15,38,14.70
2015,09,22,15,39,14.70
2015,09,22,15,40,14.70
2015,09,22,15,41,14.70
2015,09,22,15,42,14.80
2015,09,22,15,43,14.80
2015,09,22,15,44,14.80
2015,09,22,15,45,14.80
2015,09,22,15,46,14.80
2015,09,22,15,47,14.80
2015,09,22,15,48,14.80
2015,09,22,15,49,14.80
2015,09,22,15,50,14.80
2015,09,22,15,51,14.80
2015,09,22,15,52,14.80
2015,09,22,15,53,14.80
2015,09,22,15,54,14.80
2015,09,22,15,55,14.80
2015,09,22,15,56,14.80
2015,09,22,15,57,14.80
2015,09,22,15,58,14.80
2015,09,22,15,59,14.80
2015,09,22,16,00,14.80
2015,09,22,16,02,14.80
2015,09,22,16,03,14.80
2015,09,22,16,04,14.80
2015,09,22,16,06,14.80
2015,09,22,16,07,14.70
2015,09,22,16,08,14.80
2015,09,22,16,09,14.80
2015,09,22,16,11,14.80
2015,09,22,16,12,14.80
2015,09,22,16,13,14.80
2015,09,22,16,14,14.80
2015,09,22,16,16,14.80
2015,09,22,16,17,14.80
2015,09,22,16,18,14.80
2015,09,22,16,19,14.80
2015,09,22,16,21,14.80
2015,09,22,16,22,14.80
2015,09,22,16,23,14.80
2015,09,22,16,24,14.80
2015,09,22,16,26,14.80
2015,09,22,16,27,14.80
2015,09,22,16,28,14.80
2015,09,22,16,29,14.80
2015,09,22,16,31,14.80
2015,09,22,16,32,14.70
2015,09,22,16,33,14.70
2015,09,22,16,34,14.70
2015,09,22,16,36,14.70
2015,09,22,16,37,14.70
2015,09,22,16,38,14.70
2015,09,22,16,39,14.70
2015,09,22,16,41,14.60
2015,09,22,16,42,14.60
2015,09,22,16,43,14.60
2015,09,22,16,44,14.60
2015,09,22,16,46,14.50
2015,09,22,16,47,14.50
2015,09,22,16,48,14.50
2015,09,22,16,49,14.50
2015,09,22,16,51,14.50
2015,09,22,16,52,14.50
2015,09,22,16,53,14.50
2015,09,22,16,54,14.50
2015,09,22,16,56,14.50
2015,09,22,16,57,14.50
2015,09,22,16,58,14.50
2015,09,22,16,59,14.50
2015,09,22,17,01,14.40
2015,09,22,17,02,14.40
2015,09,22,17,03,14.40
2015,09,22,17,04,14.30
2015,09,22,17,06,14.20
2015,09,22,17,07,14.20
2015,09,22,17,08,14.20
2015,09,22,17,09,14.10
2015,09,22,17,11,14.10
2015,09,22,17,12,14.10
2015,09,22,17,13,14.10
2015,09,22,17,14,14.10
2015,09,22,17,16,14.10
2015,09,22,17,17,14.10
2015,09,22,17,18,14.10
2015,09,22,17,19,14.10
2015,09,22,17,21,14.10
2015,09,22,17,22,14.20
2015,09,22,17,23,14.20
2015,09,22,17,24,14.20
2015,09,22,17,26,14.20
2015,09,22,17,27,14.20
2015,09,22,17,28,14.20
2015,09,22,17,29,14.20
2015,09,22,17,31,14.20
2015,09,22,17,32,14.20
2015,09,22,17,33,14.10
2015,09,22,17,34,14.10
2015,09,22,17,36,13.90
2015,09,22,17,37,13.90
2015,09,22,17,38,13.90
2015,09,22,17,39,13.90
2015,09,22,17,41,13.80
2015,09,22,17,42,13.80
2015,09,22,17,43,13.80
2015,09,22,17,44,13.80
2015,09,22,17,46,13.80
2015,09,22,17,47,13.80
2015,09,22,17,48,13.80
2015,09,22,17,49,13.80
2015,09,22,17,51,13.70
2015,09,22,17,52,13.80
2015,09,22,17,53,13.80
2015,09,22,17,54,13.80
2015,09,22,17,56,13.80
2015,09,22,17,57,13.80
2015,09,22,17,58,13.80
2015,09,22,17,59,13.70
2015,09,22,18,01,13.70
2015,09,22,18,02,13.70
2015,09,22,18,03,13.70
2015,09,22,18,04,13.70
2015,09,22,18,06,13.70
2015,09,22,18,07,13.70
2015,09,22,18,08,13.70
2015,09,22,18,09,13.70
2015,09,22,18,10,13.60
2015,09,22,18,11,13.60
2015,09,22,18,12,13.60
2015,09,22,18,13,13.60
2015,09,22,18,14,13.60
2015,09,22,18,15,13.60
2015,09,22,18,16,13.60
2015,09,22,18,17,13.60
2015,09,22,18,18,13.60
2015,09,22,18,19,13.50
2015,09,22,18,20,13.50
2015,09,22,18,21,13.50
2015,09,22,18,22,13.40
2015,09,22,18,23,13.40
2015,09,22,18,24,13.40
2015,09,22,18,25,13.40
2015,09,22,18,26,13.40
2015,09,22,18,27,13.40
2015,09,22,18,28,13.40
2015,09,22,18,29,13.40
2015,09,22,18,30,13.40
2015,09,22,18,31,13.40
2015,09,22,18,32,13.40
2015,09,22,18,33,13.40
2015,09,22,18,34,13.40
2015,09,22,18,35,13.40
2015,09,22,18,36,13.40
2015,09,22,18,37,13.40
2015,09,22,18,38,13.40
2015,09,22,18,39,13.40
2015,09,22,18,40,13.40
2015,09,22,18,41,13.40
2015,09,22,18,42,13.40
2015,09,22,18,43,13.40
2015,09,22,18,44,13.30
2015,09,22,18,45,13.30
2015,09,22,18,46,13.30
2015,09,22,18,47,13.30
2015,09,22,18,49,13.30
2015,09,22,18,51,13.30
2015,09,22,18,52,13.30
2015,09,22,18,53,13.30
2015,09,22,18,54,13.30
2015,09,22,18,56,13.30
2015,09,22,18,57,13.30
2015,09,22,18,58,13.30
2015,09,22,18,59,13.30
2015,09,22,19,01,13.20
2015,09,22,19,02,13.20
2015,09,22,19,03,13.20
2015,09,22,19,04,13.20
2015,09,22,19,06,13.20
2015,09,22,19,07,13.10
2015,09,22,19,08,13.10
2015,09,22,19,09,13.10
2015,09,22,19,11,13.10
2015,09,22,19,12,13.10
2015,09,22,19,13,13.10
2015,09,22,19,14,13.10
2015,09,22,19,16,13.00
2015,09,22,19,17,13.00
2015,09,22,19,18,13.00
2015,09,22,19,19,13.00
2015,09,22,19,21,13.00
2015,09,22,19,22,13.00
2015,09,22,19,23,13.00
2015,09,22,19,24,13.00
2015,09,22,19,26,13.00
2015,09,22,19,27,13.00
2015,09,22,19,28,13.00
2015,09,22,19,29,13.00
2015,09,22,19,31,13.00
2015,09,22,19,32,13.10
2015,09,22,19,33,13.10
2015,09,22,19,34,13.10
2015,09,22,19,36,13.10
2015,09,22,19,37,13.10
2015,09,22,19,38,13.10
2015,09,22,19,39,13.10
2015,09,22,19,41,13.10
2015,09,22,19,42,13.20
2015,09,22,19,43,13.20
2015,09,22,19,44,13.20
2015,09,22,19,46,13.20
2015,09,22,19,47,13.20
2015,09,22,19,48,13.20
2015,09,22,19,49,13.20
2015,09,22,19,51,13.20
2015,09,22,19,52,13.20
2015,09,22,19,53,13.10
2015,09,22,19,54,13.10
2015,09,22,19,56,13.10
2015,09,22,19,57,13.10
2015,09,22,19,58,13.10
2015,09,22,19,59,13.10
2015,09,22,20,01,13.10
2015,09,22,20,02,13.10
2015,09,22,20,03,13.10
2015,09,22,20,04,13.10
2015,09,22,20,06,13.10
2015,09,22,20,07,13.10
2015,09,22,20,08,13.10
2015,09,22,20,09,13.10
2015,09,22,20,11,13.00
2015,09,22,20,12,13.00
2015,09,22,20,13,13.00
2015,09,22,20,14,13.00
2015,09,22,20,16,13.00
2015,09,22,20,17,13.00
2015,09,22,20,18,13.00
2015,09,22,20,19,13.00
2015,09,22,20,21,13.00
2015,09,22,20,22,13.00
2015,09,22,20,23,13.00
2015,09,22,20,24,13.00
2015,09,22,20,26,13.00
2015,09,22,20,27,13.00
2015,09,22,20,28,13.00
2015,09,22,20,29,13.00
2015,09,22,20,31,13.00
2015,09,22,20,32,13.00
2015,09,22,20,33,13.00
2015,09,22,20,34,13.00
2015,09,22,20,36,13.00
2015,09,22,20,37,13.00
2015,09,22,20,38,13.00
2015,09,22,20,39,12.90
2015,09,22,20,41,12.90
2015,09,22,20,42,12.90